Location: Baia Mare
(47.6567°N, 23.5850°E)
Time: 19:40:04
(UTC+02:00)

ISS - Pass Details

Date: 06 February 2016
Orbit: 417 x 420 km, 51.6° (Epoch: 28 October)

Event Time Altitude Azimuth Distance (km) Brightness Sun altitude
Rises 18:01:10 0° 291° (WNW) 2,478 1.1 -5.2°
Reaches altitude 10° 18:03:29 10° 281° (W) 1,593 0.3 -5.6°
Maximum altitude 18:06:40 30° 218° (SW) 824 -1.6 -6.1°
Drops below altitude 10° 18:09:48 10° 155° (SSE) 1,561 -0.9 -6.6°
Sets 18:12:03 0° 144° (SE) 2,418 -0.1 -7.0°
